EN

Hourly Weather Caijiapu

Today, 20 April, Tuesday

Time Temperature Precipitation Wind Pressure Humidity
00:00 +21°C° 0 mm 4 mps 759 mmHg 38%
01:00 +20°C° 0 mm 4 mps 760 mmHg 39%
02:00 +20°C° 0 mm 4 mps 760 mmHg 40%
03:00 +19°C° 0 mm 3 mps 760 mmHg 41%
04:00 +19°C° 0 mm 2 mps 760 mmHg 42%
05:00 +18°C° 0 mm 2 mps 761 mmHg 44%
06:00 +19°C° 0 mm 2 mps 761 mmHg 43%
07:00 +19°C° 0 mm 3 mps 762 mmHg 42%
08:00 +20°C° 0 mm 4 mps 762 mmHg 42%
09:00 +19°C° 0 mm 4 mps 763 mmHg 43%
10:00 +19°C° 0 mm 5 mps 763 mmHg 45%
11:00 +19°C° 0 mm 5 mps 763 mmHg 46%
12:00 +19°C° 0 mm 5 mps 763 mmHg 45%
13:00 +19°C° 0 mm 6 mps 763 mmHg 44%
14:00 +20°C° 0 mm 6 mps 762 mmHg 43%
15:00 +19°C° 0 mm 5 mps 762 mmHg 44%
16:00 +19°C° 0 mm 5 mps 762 mmHg 45%
17:00 +17°C° 0 mm 5 mps 761 mmHg 47%
18:00 +17°C° 0 mm 5 mps 762 mmHg 48%
19:00 +16°C° 0 mm 5 mps 762 mmHg 50%
20:00 +16°C° 0 mm 5 mps 762 mmHg 51%
21:00 +16°C° 0 mm 5 mps 762 mmHg 53%
22:00 +15°C° 0 mm 5 mps 763 mmHg 55%
23:00 +15°C° 0 mm 5 mps 763 mmHg 57%

Tomorrow, 21 April, Wednesday

Time Temperature Precipitation Wind Pressure Humidity
00:00 +17°C° 0 mm 4 mps 763 mmHg 54%
01:00 +17°C° 0 mm 4 mps 763 mmHg 51%
02:00 +17°C° 0 mm 3 mps 763 mmHg 48%
03:00 +17°C° 0 mm 2 mps 763 mmHg 50%
04:00 +16°C° 0 mm 1 mps 763 mmHg 51%
05:00 +16°C° 0 mm 1 mps 763 mmHg 53%
06:00 +16°C° 0 mm 1 mps 763 mmHg 51%
07:00 +17°C° 0 mm 2 mps 763 mmHg 50%
08:00 +18°C° 0 mm 3 mps 764 mmHg 48%
09:00 +18°C° 0 mm 3 mps 764 mmHg 47%
10:00 +18°C° 0 mm 4 mps 764 mmHg 45%
11:00 +18°C° 0 mm 4 mps 764 mmHg 44%
12:00 +18°C° 0 mm 4 mps 764 mmHg 43%
13:00 +18°C° 0 mm 4 mps 764 mmHg 43%
14:00 +18°C° 0 mm 4 mps 763 mmHg 42%
15:00 +15°C° 0.2 mm 4 mps 763 mmHg 54%
16:00 +13°C° 0.2 mm 4 mps 763 mmHg 65%
17:00 +10°C° 0.2 mm 5 mps 763 mmHg 76%
18:00 +11°C° 0.1 mm 4 mps 763 mmHg 76%
19:00 +11°C° 0.1 mm 4 mps 763 mmHg 75%
20:00 +11°C° 0.1 mm 4 mps 763 mmHg 75%
21:00 +11°C° 0 mm 4 mps 763 mmHg 74%
22:00 +11°C° 0 mm 4 mps 763 mmHg 73%
23:00 +11°C° 0 mm 3 mps 763 mmHg 73%

Day after tomorrow, 22 April, Thursday

Time Temperature Precipitation Wind Pressure Humidity
00:00 +11°C° 0.1 mm 3 mps 763 mmHg 74%
01:00 +10°C° 0.1 mm 4 mps 762 mmHg 76%
02:00 +10°C° 0.1 mm 4 mps 762 mmHg 78%
03:00 +10°C° 0.1 mm 4 mps 761 mmHg 81%
04:00 +10°C° 0.1 mm 4 mps 761 mmHg 83%
05:00 +10°C° 0.1 mm 4 mps 761 mmHg 86%
06:00 +10°C° 0.1 mm 4 mps 761 mmHg 86%
07:00 +10°C° 0.1 mm 3 mps 761 mmHg 86%
08:00 +10°C° 0.1 mm 3 mps 761 mmHg 86%
09:00 +10°C° 0 mm 3 mps 761 mmHg 84%
10:00 +10°C° 0 mm 3 mps 761 mmHg 81%
11:00 +11°C° 0 mm 3 mps 761 mmHg 79%
12:00 +11°C° 0 mm 3 mps 761 mmHg 76%
13:00 +12°C° 0 mm 3 mps 760 mmHg 73%
14:00 +12°C° 0 mm 3 mps 760 mmHg 70%
15:00 +13°C° 0 mm 3 mps 760 mmHg 70%
16:00 +13°C° 0 mm 3 mps 760 mmHg 70%
17:00 +13°C° 0 mm 3 mps 760 mmHg 69%
18:00 +12°C° 0 mm 3 mps 760 mmHg 72%
19:00 +12°C° 0 mm 3 mps 760 mmHg 74%
20:00 +12°C° 0 mm 2 mps 761 mmHg 76%
21:00 +12°C° 0 mm 2 mps 761 mmHg 79%
22:00 +10°C° 0 mm 2 mps 761 mmHg 82%
23:00 +10°C° 0 mm 2 mps 761 mmHg 84%

23 April, Friday

Time Temperature Precipitation Wind Pressure Humidity
00:00 +10°C° 0 mm 2 mps 761 mmHg 85%
01:00 +9°C° 0 mm 2 mps 761 mmHg 86%
02:00 +10°C° 0 mm 1 mps 761 mmHg 87%
03:00 +9°C° 0 mm 2 mps 762 mmHg 87%
04:00 +9°C° 0 mm 2 mps 762 mmHg 87%
05:00 +9°C° 0 mm 3 mps 762 mmHg 87%
06:00 +10°C° 0 mm 3 mps 763 mmHg 81%
07:00 +11°C° 0 mm 3 mps 763 mmHg 76%
08:00 +12°C° 0 mm 3 mps 764 mmHg 70%
09:00 +14°C° 0 mm 3 mps 764 mmHg 64%
10:00 +17°C° 0 mm 3 mps 764 mmHg 58%
11:00 +19°C° 0 mm 3 mps 764 mmHg 52%
12:00 +19°C° 0 mm 4 mps 764 mmHg 50%
13:00 +20°C° 0 mm 4 mps 764 mmHg 49%
14:00 +21°C° 0 mm 5 mps 764 mmHg 48%
15:00 +20°C° 0 mm 6 mps 764 mmHg 50%
16:00 +18°C° 0 mm 8 mps 764 mmHg 51%
17:00 +18°C° 0 mm 9 mps 765 mmHg 53%
18:00 +16°C° 0 mm 9 mps 765 mmHg 60%
19:00 +15°C° 0 mm 9 mps 766 mmHg 67%
20:00 +13°C° 0 mm 9 mps 767 mmHg 74%
21:00 +12°C° 0 mm 8 mps 768 mmHg 74%
22:00 +12°C° 0 mm 8 mps 768 mmHg 75%
23:00 +12°C° 0 mm 7 mps 769 mmHg 75%

24 April, Saturday

Time Temperature Precipitation Wind Pressure Humidity
00:00 +12°C° 0 mm 7 mps 769 mmHg 76%
01:00 +13°C° 0 mm 6 mps 769 mmHg 77%
02:00 +13°C° 0 mm 6 mps 769 mmHg 78%
03:00 +13°C° 0 mm 6 mps 769 mmHg 76%
04:00 +14°C° 0 mm 5 mps 769 mmHg 74%
05:00 +14°C° 0 mm 5 mps 770 mmHg 72%
06:00 +14°C° 0 mm 5 mps 770 mmHg 69%
07:00 +15°C° 0 mm 5 mps 770 mmHg 67%
08:00 +15°C° 0 mm 6 mps 771 mmHg 65%
09:00 +16°C° 0 mm 6 mps 770 mmHg 61%
10:00 +17°C° 0 mm 6 mps 770 mmHg 57%
11:00 +19°C° 0 mm 6 mps 770 mmHg 53%
12:00 +19°C° 0 mm 6 mps 770 mmHg 53%
13:00 +17°C° 0 mm 6 mps 770 mmHg 53%
14:00 +17°C° 0 mm 6 mps 770 mmHg 53%
15:00 +16°C° 0 mm 6 mps 769 mmHg 53%
16:00 +16°C° 0 mm 6 mps 769 mmHg 53%
17:00 +16°C° 0 mm 6 mps 768 mmHg 53%
18:00 +15°C° 0 mm 6 mps 769 mmHg 55%
19:00 +14°C° 0 mm 5 mps 769 mmHg 57%
20:00 +13°C° 0 mm 4 mps 770 mmHg 60%
21:00 +12°C° 0 mm 4 mps 770 mmHg 59%
22:00 +12°C° 0 mm 3 mps 770 mmHg 57%
23:00 +12°C° 0 mm 3 mps 771 mmHg 56%

25 April, Sunday

Time Temperature Precipitation Wind Pressure Humidity
00:00 +13°C° 0 mm 2 mps 770 mmHg 55%
01:00 +12°C° 0 mm 2 mps 770 mmHg 54%
02:00 +12°C° 0 mm 2 mps 770 mmHg 53%
03:00 +12°C° 0 mm 2 mps 770 mmHg 51%
04:00 +12°C° 0 mm 2 mps 770 mmHg 48%
05:00 +10°C° 0 mm 2 mps 769 mmHg 46%
06:00 +12°C° 0 mm 3 mps 770 mmHg 39%
07:00 +13°C° 0 mm 4 mps 770 mmHg 31%
08:00 +14°C° 0 mm 5 mps 770 mmHg 24%
09:00 +15°C° 0 mm 4 mps 770 mmHg 23%
10:00 +17°C° 0 mm 3 mps 769 mmHg 21%
11:00 +18°C° 0 mm 3 mps 769 mmHg 19%
12:00 +18°C° 0 mm 3 mps 768 mmHg 20%
13:00 +18°C° 0 mm 4 mps 768 mmHg 22%
14:00 +17°C° 0 mm 5 mps 767 mmHg 23%
15:00 +16°C° 0 mm 5 mps 767 mmHg 25%
16:00 +15°C° 0 mm 5 mps 767 mmHg 27%
17:00 +14°C° 0 mm 6 mps 766 mmHg 29%
18:00 +14°C° 0 mm 5 mps 766 mmHg 32%
19:00 +13°C° 0 mm 4 mps 766 mmHg 35%
20:00 +12°C° 0 mm 4 mps 766 mmHg 38%
21:00 +12°C° 0 mm 3 mps 766 mmHg 38%
22:00 +12°C° 0 mm 3 mps 766 mmHg 38%
23:00 +12°C° 0 mm 3 mps 766 mmHg 39%
Show more

We Need Your Consent

Meteoprog and our Service Providers may store and access personal data such as cookies, device identifiers or other similar technologies on your device and process such data to personalise content and ads, as well as provide social media features and to analyse the traffic.

  • Store and/or access information on your device

    Cookies, device identifiers or other information can be stored or accessed on your device for the purposes indicated above.

  • Personalised ads and content, ad and content measurement, audience insights, and products development

    Ads and content can be personalised based on a profile. More data can be added to better personalise ads and content. Ad and content performance can be measured. Insights about the audience who saw the ads and content can be derived. Such data can be used to develop or improve user’s experience, systems and software.

By clicking ‘I Agree’ you will allow the use of indicated cookies, device identifiers, web beacons or other similar technologies. Your settings can be changed in the browser on your device.

For certain purposes, legitimate interests may be relied on, rather than consent. You can read more about this in our Privacy and Cookie Policy.